This is the latest recevied weather packets stored in our database for station/object OK3MS-5. If no packets are shown the sender has not sent any weather packets the latest 10 day(s).
| Time | Temp. | Humidity | Pressure | Rain* | Wind** | Luminosity | Snow |
|---|---|---|---|---|---|---|---|
| 1777483202 | 9.44° C | 36% | 1024.6 hPa | 0 mm | - | 33 W/m² | - |
| 1777482909 | 9.44° C | 34% | 1024.5 hPa | 0 mm | - | 36 W/m² | - |
| 1777482603 | 9.44° C | 35% | 1024.5 hPa | 0 mm | - | 40 W/m² | - |
| 1777482307 | 10° C | 35% | 1024.2 hPa | 0 mm | - | 46 W/m² | - |
| 1777482004 | 10° C | 34% | 1024.1 hPa | 0 mm | - | 56 W/m² | - |
| 1777481704 | 10° C | 34% | 1024.1 hPa | 0 mm | - | 68 W/m² | - |
| 1777481405 | 10.56° C | 34% | 1024 hPa | 0 mm | - | 79 W/m² | - |
| 1777481105 | 10.56° C | 34% | 1024 hPa | 0 mm | - | 91 W/m² | - |
| 1777480804 | 10.56° C | 35% | 1023.9 hPa | 0 mm | - | 102 W/m² | - |
| 1777480505 | 10.56° C | 35% | 1023.9 hPa | 0 mm | - | 113 W/m² | - |
| 1777480204 | 10.56° C | 34% | 1023.8 hPa | 0 mm | - | 125 W/m² | - |
| 1777479908 | 10.56° C | 35% | 1023.9 hPa | 0 mm | - | 136 W/m² | - |
| 1777479604 | 10.56° C | 35% | 1023.7 hPa | 0 mm | - | 148 W/m² | - |
| 1777479305 | 10.56° C | 34% | 1023.6 hPa | 0 mm | - | 160 W/m² | - |
| 1777479004 | 10.56° C | 35% | 1023.6 hPa | 0 mm | - | 173 W/m² | - |
| 1777478705 | 11.11° C | 35% | 1023.5 hPa | 0 mm | - | 186 W/m² | - |
| 1777478403 | 11.11° C | 37% | 1023.5 hPa | 0 mm | - | 198 W/m² | - |
| 1777478104 | 11.11° C | 36% | 1023.4 hPa | 0 mm | - | 211 W/m² | - |
| 1777477805 | 11.11° C | 35% | 1023.4 hPa | 0 mm | - | 222 W/m² | - |
| 1777477506 | 11.67° C | 35% | 1023.3 hPa | 0 mm | - | 237 W/m² | - |
| 1777477204 | 11.11° C | 35% | 1023.3 hPa | 0 mm | - | 250 W/m² | - |
| 1777476905 | 11.11° C | 34% | 1023.3 hPa | 0 mm | - | 265 W/m² | - |
| 1777476611 | 11.67° C | 36% | 1023.1 hPa | 0 mm | - | 276 W/m² | - |
| 1777476305 | 11.67° C | 35% | 1023.1 hPa | 0 mm | - | 288 W/m² | - |
| 1777476007 | 11.67° C | 35% | 1023 hPa | 0 mm | - | 302 W/m² | - |
* Rain latest hour (hover to see other rain measurements)
** Current wind speed in m/s (hover to see current wind gust speed)